Flag for Taiwan Weather past 2 weeks in Kaohsiung, Taiwan

Now
70 °F

Fog.


Feels Like: 70 °F
Forecast: 64 / 79 °F
Wind: 5 mph from North

Location: Kaohsiung International Airport

Current Time: Feb 28, 2015 at 7:14:26 AM

Latest Report: Feb 28, 2015 at 6:30 AM


Visibility: 3 mi

Pressure: 30.04 "Hg

Humidity: 83%

Dew point: 64 °F

Location of KaohsiungLocation

Historic Weather in Kaohsiung — Graph

°F

Kaohsiung temperature yesterday

Maximum temperature yesterday: 82 °F (at 2:30 PM)
Minimum temperature yesterday: 68 °F (at 11:30 PM)
Average temperature yesterday: 74 °F

Past Weeks' High & Low Weather Summary

 TemperatureHumidityPressure
High88 °F (Feb 26, 2:00 PM)100% (Feb 16, 6:52 AM)30.18 "Hg (Feb 16, 6:52 AM)
Low57 °F (Feb 13, 6:00 AM)36% (Feb 14, 11:30 AM)29.86 "Hg (Feb 24, 2:30 PM)
Average73 °F75%30.01 "Hg
* Reported Feb 13 6:00 AM — Feb 28 6:00 AM, Kaohsiung, Weather by CustomWeather, © 2015

Note: Actual official high and low records may vary slightly from our data, if they occured in-between our weather recording intervals... More about our weather records

Advertising

Kaohsiung weather history for previous 24 hours

 ConditionsComfort  
Time TempWeatherWind HumidityBarometerVisibility
6:00 AM
Sat, Feb 28
68 °FFog.3 mph88%30.04 "Hg3 mi
5:00 AM68 °FFog.7 mph88%30.01 "Hg3 mi
4:00 AM68 °FFog.5 mph88%30.01 "Hg2 mi
3:00 AM68 °FFog.7 mph88%30.01 "Hg2 mi
2:00 AM68 °FFog.8 mph88%30.01 "Hg2 mi
1:00 AM68 °FFog.7 mph94%30.01 "Hg2 mi
12:00 AM68 °FFog.7 mph88%30.04 "Hg2 mi
11:30 PM
Fri, Feb 27
68 °FFog.7 mph94%30.04 "Hg1 mi
11:00 PM70 °FFog.8 mph88%30.04 "Hg2 mi
10:46 PM70 °FFog.8 mph88%30.04 "Hg2 mi
10:30 PM70 °FFog.9 mph88%30.04 "Hg2 mi
10:00 PM70 °FFog.9 mph88%30.04 "Hg2 mi
9:30 PM70 °FFog.9 mph88%30.04 "Hg2 mi
9:00 PM72 °FFog.13 mph83%30.04 "Hg3 mi
8:30 PM72 °FFog.10 mph83%30.01 "Hg3 mi
8:00 PM72 °FFog.12 mph83%30.01 "Hg3 mi
7:30 PM73 °FFog.8 mph78%30.01 "Hg3 mi
7:00 PM73 °FFog.9 mph83%29.98 "Hg3 mi
6:30 PM73 °FPassing clouds.12 mph83%29.98 "Hg4 mi
6:00 PM75 °FBroken clouds.10 mph78%29.98 "Hg4 mi
5:30 PM77 °FPartly sunny.10 mph74%29.95 "Hg4 mi
5:00 PM79 °FScattered clouds.8 mph70%29.95 "Hg4 mi
4:30 PM79 °FScattered clouds.8 mph70%29.95 "Hg4 mi
4:00 PM79 °FScattered clouds.8 mph70%29.92 "Hg4 mi
3:30 PM82 °FPartly sunny.10 mph62%29.95 "Hg4 mi
3:00 PM81 °FPartly sunny.12 mph70%29.92 "Hg4 mi
2:30 PM82 °FPartly sunny.7 mph66%29.95 "Hg4 mi
2:00 PM81 °FPartly sunny.7 mph70%29.95 "Hg3 mi
1:30 PM81 °FBroken clouds.9 mph70%29.98 "Hg3 mi
1:00 PM81 °FBroken clouds.8 mph70%29.98 "Hg3 mi
12:30 PM81 °FBroken clouds.7 mph66%30.01 "Hg2 mi
11:30 AM79 °FBroken clouds.8 mph74%30.04 "Hg2 mi
10:30 AM79 °FBroken clouds.6 mph70%30.07 "Hg2 mi
10:00 AM79 °FBroken clouds.3 mph70%30.07 "Hg2 mi
9:30 AM77 °FPartly sunny.5 mph74%30.07 "Hg2 mi
9:00 AM73 °FPartly sunny.5 mph83%30.07 "Hg2 mi
8:30 AM73 °FFog.5 mph78%30.07 "Hg2 mi
8:00 AM72 °FFog.6 mph83%30.04 "Hg2 mi
7:30 AM72 °FFog.5 mph83%30.04 "Hg2 mi
7:00 AM70 °FFog.6 mph88%30.04 "Hg2 mi
Weather by CustomWeather, © 2015

See weather overviewHow to use our weather pages